{"data":{"norad_id":58597,"intl_designator":"2023-200J","name":"STARLINK-31087","alt_names":[],"object_type":"PAYLOAD","status":"ACTIVE","operator":null,"country":"US","launch_date":"2023-12-19","launch_site_code":"AFETR","launch_vehicle":null,"mission":null,"orbit_class":"UNKNOWN","rcs_meters":null,"size_class":null,"mass_kg":null,"dimensions":null,"purposes":["comms"],"wikipedia_slug":null,"has_3d_model":false,"image_url":null,"decayed_at":null,"tle_current":{"epoch":"2026-05-25T04:27:05.673312Z","epoch_age_seconds":52937,"freshness":"FRESH","line1":"1 58597U 23200J   26145.18548233  .00001707  00000+0  71530-4 0  9997","line2":"2 58597  43.0058  96.5251 0001259 274.5987  85.4721 15.27581019135200","mean_motion":15.27581019,"eccentricity":0.0001259,"inclination_deg":43.0058,"raan_deg":96.5251,"arg_perigee_deg":274.5987,"mean_anomaly_deg":85.4721,"bstar":7.153e-5,"rev_number":13520,"period_min":94.266685831346,"perigee_km":482.18222184343,"apogee_km":483.9098677341,"semimajor_km":6861.1830447888,"source":"CELESTRAK","updated_at":"2026-05-25T13:38:18.671598Z"}}}